IRIDIUM 147 (43480 NORAD) Tracking and Keplerian Element Data

This shows tracking and keplerian element data for the satellite.

Feedback or suggestion? Click here.




ElementValue
Catalog43480
NameIRIDIUM 147
Epoch Orbit17518
Epoch Day268.80245827
Epoch Year2021
RAAN89.3957
Inclination86.3914
Eccentricity0.0002022
Argument of Perigee82.2775
Mean Anonmoly277.8651
Mean Motion14.34218073
Decay Rate3E-07
L11 43480U 18047E 21268.80245827 .00000030 00000-0 37025-5 0 9999
L22 43480 86.3914 89.3957 0002022 82.2775 277.8651 14.34218073175181

Live tracking and technical data element details for IRIDIUM 147 (NORAD 43480). IRIDIUM 147 can be tracked NOW for your location showing map with azimuth and elevation plus other details from your city location.

Track the satellite on the map from your city or location and see movement details for azimuth, elevation, latitude, longitude, range, height, and movement on the map or in text.







IsCatalogInMostPopularTable: catalog: 43480, numindb: 540
Update: records affected: 1



GetName: 43480 IRIDIUM 147

Hit Count: updated at: Mon, 27 Sep 2021 01:09:38 GMT